Location: Peebles
(55.6412°N, 3.1714°W)
Time: 18:57:14
(UTC+00:00)

N. Korean satellite - Visible Passes

Search period start: 04 December 2022 00:00
Search period end: 14 December 2022 00:00
Orbit: 421 x 453 km, 97.3° (Epoch: 04 December)

Date Brightness Start Highest point End Pass type
(mag) Time Alt. Az. Time Alt. Az. Time Alt. Az.
04 Dec 8.7 05:00:35 10° NE 05:03:31 26° E 05:06:24 10° SSE visible
04 Dec 7.1 06:32:58 10° N 06:36:05 33° WNW 06:39:10 10° SW visible
04 Dec 8.6 17:09:20 10° SSW 17:12:23 30° W 17:15:28 10° NNW visible
05 Dec 9.9 04:23:14 10° ENE 04:24:15 11° E 04:25:14 10° ESE visible
05 Dec 6.3 05:53:51 10° NNE 05:57:18 85° WNW 06:00:41 10° SSW visible
05 Dec 8.3 07:27:54 10° NNW 07:29:13 12° NW 07:30:32 10° WNW visible
05 Dec 6.6 16:29:56 10° SSE 16:33:21 81° WSW 16:36:48 10° NNW visible
06 Dec 8.0 05:15:05 10° NNE 05:18:16 35° E 05:21:25 10° SSE visible
06 Dec 7.5 06:47:50 10° N 06:50:40 24° WNW 06:53:28 10° WSW visible
06 Dec 9.2 17:24:24 10° SW 17:27:07 22° W 17:29:52 10° NW visible
07 Dec 9.5 04:36:58 10° NE 04:39:02 15° E 04:41:04 10° SE visible
07 Dec 6.4 06:08:30 10° N 06:11:54 58° WNW 06:15:12 10° SSW visible
07 Dec 7.2 16:44:36 10° S 16:47:57 55° W 16:51:21 10° NNW visible
08 Dec 7.2 05:29:32 10° NNE 05:32:53 51° E 05:36:11 10° S visible
08 Dec 7.8 07:02:40 10° NNW 07:05:05 18° WNW 07:07:29 10° WSW visible
08 Dec 9.6 17:39:33 10° SW 17:41:46 16° W 17:44:01 10° NW visible
09 Dec 9.0 04:51:01 10° NE 04:53:38 20° E 04:56:14 10° SE visible
09 Dec 6.7 06:23:05 10° N 06:26:19 41° WNW 06:29:30 10° SW visible
09 Dec 8.0 16:59:15 10° SSW 17:02:28 38° W 17:05:43 10° NNW visible
10 Dec 6.5 05:43:55 10° NNE 05:47:20 75° ESE 05:50:41 10° S visible
10 Dec 8.1 07:17:30 10° NNW 07:19:22 14° WNW 07:21:13 10° W visible
10 Dec 9.9 17:54:56 10° WSW 17:56:18 12° W 17:57:41 10° WNW visible
11 Dec 8.5 05:05:07 10° NE 05:08:06 28° E 05:11:02 10° SSE visible
11 Dec 7.2 06:37:35 10° N 06:40:36 30° WNW 06:43:34 10° SW visible
11 Dec 8.7 17:13:52 10° SSW 17:16:51 28° W 17:19:52 10° NW visible
12 Dec 9.8 04:27:19 10° ENE 04:28:38 12° E 04:29:56 10° ESE visible
12 Dec 6.2 05:58:12 10° NNE 06:01:37 76° WNW 06:04:57 10° SSW visible
12 Dec 8.4 07:32:36 10° NW 07:33:29 11° NW 07:34:22 10° WNW visible
12 Dec 6.7 16:34:11 10° S 16:37:35 74° WSW 16:41:02 10° NNW visible
13 Dec 7.8 05:19:11 10° NNE 05:22:24 38° E 05:25:33 10° SSE visible
13 Dec 7.6 06:52:01 10° N 06:54:43 22° WNW 06:57:23 10° WSW visible
13 Dec 9.3 17:28:31 10° SW 17:31:09 20° W 17:33:47 10° NW visible
